Buenos Aires, Argentina

2:40 PM America en Julio 21, 2017 (GMT +0000)
Jorge Newbery Aeroparque

Tiempo Historia de SABE - Enero, 2017

Change the Weather History Date:

Miércoles, Enero 11, 2017

  Actual Average Record
Temperature  
Temperatura media 78 ° F -  
Temperatura máxima 85 ° F 82 ° F 91 ° F (2015)
Temperatura mínima 70 ° F 68 ° F 57 ° F (2001)
Cooling Degree Days 12    
Growing Degree Days 28 (Base 50)    
Moisture  
Punto de rocío 59 ° F    
Average Humidity 51    
Maximum Humidity 65    
Minimum Humidity 29    
Precipitación  
Precipitación 0.00 pul 0.13 pul - ()
Presión al nivel del mar  
Presión al nivel del mar 29.94 pul    
Viento  
Velocidad del viento 8 mph ()    
Velocidad máxima del viento 15 mph    
Max Gust Speed -    
Visibilidad 6.0 Millas    
Eventos      
Averages and records for this station are not official NWS values.
T = Trace of Precipitation, MM = Missing Value Source: Averaged Metar Reports

Daily Weather History Graph

Daily Weather History Graph

Search for Another Location

Airport or City:

Trip Planner

Search our weather history database for the weather conditions in past years. The results will help you decide how hot, cold, wet, or windy it might be!

Date:

Astronomía

Jan. 11, 2017 Salida Puesta
Hora real 5:53 AM -03 8:09 PM -03
Crepúsculo civil 5:24 AM -03 8:38 PM -03
Crepúsculo náutico 4:49 AM -03 9:13 PM -03
Crepúsculo astronómico 4:10 AM -03 9:52 PM -03
Luna 7:23 PM -03 (1/11) 4:57 AM -03 (1/11)
Horas de luz 15h 14m
Horas de luz
14h 16m
Gibosa creciente, 99% of the Moon is Illuminated
Ene 11
Gibosa creciente
Ene 12
Luna llena
Ene 19
Cuarto menguante
Ene 27
Nueva
Feb 4
Cuarto creciente

Hourly Weather History & Observations

Hora (-03) Temp. Índice de calor Punto de rocío Humedad Presión Visibilidad Wind Dir Velocidad del viento Velocidad de ráfagas Precip Eventos Condiciones
12:00 AM 76 ° F - 53 ° F 33% 29.93 pul 6 mi NNE 5.8 mph - -   Nubes dispersas
12:00 AM 77.0 ° F - 51.8 ° F 41% 29.92 pul - NNE 5.8 mph - N/A   Despejado
1:00 AM 75.2 ° F - 55.4 ° F 50% 29.92 pul - NNE 8.1 mph - N/A   Despejado
2:00 AM 75.2 ° F - 57.2 ° F 53% 29.92 pul - NNE 11.5 mph - N/A   Despejado
3:00 AM 74 ° F - 59 ° F 49% 29.93 pul 6 mi NNE 11.5 mph - -  
3:00 AM 75.2 ° F - 59.0 ° F 57% 29.92 pul - NNE 11.5 mph - N/A   Despejado
4:00 AM 71.6 ° F - 59.0 ° F 64% 29.95 pul - Norte 13.8 mph - N/A   Despejado
5:00 AM 71.6 ° F - 57.2 ° F 60% 29.98 pul - Norte 13.8 mph - N/A   Despejado
6:00 AM 71 ° F - 57 ° F 53% 29.99 pul 6 mi Norte 15.0 mph - -  
6:00 AM 69.8 ° F - 57.2 ° F 64% 29.98 pul - Norte 15.0 mph - N/A   Despejado
7:00 AM 71.6 ° F - 59.0 ° F 64% 29.98 pul - Norte 11.5 mph - N/A   Despejado
8:00 AM 71.6 ° F - 59.0 ° F 64% 30.01 pul - NNO 10.4 mph - N/A   Despejado
9:00 AM 72 ° F - 59 ° F 54% 30.01 pul 6 mi NNO 9.2 mph - -   Despejado
9:00 AM 71.6 ° F - 59.0 ° F 64% 30.01 pul - NNO 9.2 mph - N/A   Despejado
10:00 AM 73.4 ° F - 60.8 ° F 65% 29.98 pul - NNO 8.1 mph - N/A   Despejado
11:00 AM 77.0 ° F - 62.6 ° F 61% 29.98 pul - Norte 9.2 mph - N/A   Despejado
12:00 PM 79 ° F - 62 ° F 46% 29.99 pul 6 mi Norte 10.4 mph - -   Despejado
12:00 PM 78.8 ° F - 62.6 ° F 57% 29.98 pul - Norte 10.4 mph - N/A   Despejado
1:00 PM 80.6 ° F 81.5 ° F 60.8 ° F 51% 29.98 pul - Norte 5.8 mph - N/A   Despejado
2:00 PM 80.6 ° F 82.3 ° F 64.4 ° F 58% 29.95 pul - NE 6.9 mph - N/A   Despejado
3:00 PM 81 ° F - 63 ° F 45% 29.94 pul 6 mi NE 6.9 mph - -   Despejado
3:00 PM 80.6 ° F 81.8 ° F 62.6 ° F 54% 29.92 pul - NE 6.9 mph - N/A   Despejado
4:00 PM 82.4 ° F 82.9 ° F 60.8 ° F 48% 29.92 pul - ENE 6.9 mph - N/A   Despejado
5:00 PM 82.4 ° F 82.9 ° F 60.8 ° F 48% 29.89 pul - NE 5.8 mph - N/A   Despejado
6:00 PM 85 ° F - 61 ° F 34% 29.88 pul 6 mi NE 8.1 mph - -   Nubes dispersas
6:00 PM 84.2 ° F 84.4 ° F 60.8 ° F 45% 29.86 pul - NE 8.1 mph - N/A   Despejado
7:00 PM 84.2 ° F 83.5 ° F 57.2 ° F 40% 29.86 pul - Norte 6.9 mph - N/A   Despejado
8:00 PM 82.4 ° F 81.7 ° F 55.4 ° F 39% 29.89 pul - NO 6.9 mph - N/A   Despejado
9:00 PM 81 ° F - 54 ° F 29% 29.91 pul 6 mi NO 3.5 mph - -   Despejado
9:00 PM 80.6 ° F 80.3 ° F 53.6 ° F 39% 29.89 pul - NO 3.5 mph - N/A   Despejado
10:00 PM 80.6 ° F 80.8 ° F 57.2 ° F 45% 29.89 pul - Variable 2.3 mph - N/A   Despejado
11:00 PM 78.8 ° F - 59.0 ° F 51% 29.92 pul - NO 6.9 mph - N/A   Despejado